GLO1731 SBSN-SBBE

Flight info

Callsign GLO1731
Flight time 1h 3m
Altitude 37000
Route EMAKE DCT NUVUG UZ81 DADUD DCT PAKUT
Aircraft B738/M-SDFGIKLORWXY/LB1

Departure

Time 2026-04-25 18:30
Airport Santarém - Maestro Wilson Fonseca International Airport (SBSN)

Arrival

Time 2026-04-25 19:33
Airport Val de Cans/Júlio Cezar Ribeiro International Airport (SBBE)
Time Latitude Longitude Altitude Speed Heading
2026-04-25 17:35 -2.42362 -54.78506 208 ft 0 kts 155°
2026-04-25 17:54 -2.42351 -54.78511 214 ft 4 kts 162°
2026-04-25 17:54 -2.42327 -54.78513 212 ft 4 kts 207°
2026-04-25 17:54 -2.42310 -54.78495 211 ft 3 kts 246°
2026-04-25 17:55 -2.42308 -54.78491 209 ft 1 kts 248°
2026-04-25 17:57 -2.42312 -54.78502 212 ft 4 kts 248°
2026-04-25 17:57 -2.42333 -54.78545 211 ft 8 kts 239°
2026-04-25 17:57 -2.42349 -54.78593 209 ft 8 kts 300°
2026-04-25 17:57 -2.42338 -54.78607 207 ft 8 kts 312°
2026-04-25 17:58 -2.42273 -54.78671 214 ft 8 kts 319°
2026-04-25 17:58 -2.42229 -54.78710 205 ft 10 kts 318°
2026-04-25 17:58 -2.42178 -54.78764 207 ft 11 kts 301°
2026-04-25 17:58 -2.42167 -54.78847 208 ft 14 kts 262°
2026-04-25 17:59 -2.42182 -54.78951 207 ft 17 kts 262°
2026-04-25 17:59 -2.42203 -54.79073 215 ft 19 kts 261°
2026-04-25 17:59 -2.42227 -54.79216 205 ft 22 kts 261°
2026-04-25 17:59 -2.42253 -54.79374 204 ft 22 kts 261°
2026-04-25 18:00 -2.42278 -54.79524 209 ft 22 kts 261°
2026-04-25 18:00 -2.42302 -54.79672 205 ft 21 kts 261°
2026-04-25 18:00 -2.42326 -54.79816 206 ft 21 kts 261°
2026-04-25 18:00 -2.42349 -54.79955 213 ft 20 kts 261°
2026-04-25 18:01 -2.42371 -54.80090 206 ft 19 kts 261°
2026-04-25 18:01 -2.42392 -54.80221 214 ft 17 kts 260°
2026-04-25 18:01 -2.42435 -54.80287 208 ft 10 kts 211°
2026-04-25 18:01 -2.42434 -54.80330 207 ft 6 kts 340°
2026-04-25 18:02 -2.42401 -54.80301 206 ft 9 kts 77°
2026-04-25 18:02 -2.42368 -54.80067 207 ft 68 kts 81°
2026-04-25 18:02 -2.42262 -54.79426 205 ft 81 kts 81°
2026-04-25 18:02 -2.42201 -54.79053 210 ft 44 kts 81°
2026-04-25 18:03 -2.42165 -54.78829 208 ft 21 kts 82°
2026-04-25 18:03 -2.42199 -54.78737 210 ft 13 kts 139°
2026-04-25 18:03 -2.42268 -54.78676 209 ft 13 kts 139°
2026-04-25 18:03 -2.42332 -54.78615 210 ft 10 kts 132°
2026-04-25 18:04 -2.42351 -54.78574 214 ft 7 kts 79°
2026-04-25 18:04 -2.42330 -54.78540 211 ft 4 kts 60°
2026-04-25 18:04 -2.42341 -54.78516 205 ft 5 kts 155°
2026-04-25 18:04 -2.42361 -54.78506 214 ft 1 kts 155°
2026-04-25 18:20 -2.42350 -54.78512 213 ft 4 kts 165°
2026-04-25 18:21 -2.42325 -54.78512 213 ft 4 kts 212°
2026-04-25 18:21 -2.42309 -54.78494 210 ft 3 kts 247°
2026-04-25 18:21 -2.42308 -54.78491 209 ft 1 kts 248°
2026-04-25 18:24 -2.42308 -54.78492 205 ft 1 kts 248°
2026-04-25 18:24 -2.42317 -54.78512 205 ft 6 kts 248°
2026-04-25 18:24 -2.42346 -54.78563 212 ft 10 kts 237°
2026-04-25 18:25 -2.42326 -54.78620 205 ft 9 kts 313°
2026-04-25 18:25 -2.42277 -54.78670 205 ft 11 kts 317°
2026-04-25 18:25 -2.42210 -54.78728 205 ft 14 kts 319°
2026-04-25 18:25 -2.42166 -54.78811 208 ft 15 kts 275°
2026-04-25 18:26 -2.42181 -54.78942 207 ft 23 kts 261°
2026-04-25 18:26 -2.42209 -54.79113 207 ft 25 kts 261°
2026-04-25 18:26 -2.42237 -54.79281 204 ft 24 kts 261°
2026-04-25 18:26 -2.42262 -54.79439 215 ft 23 kts 261°
2026-04-25 18:27 -2.42287 -54.79592 206 ft 22 kts 261°
2026-04-25 18:27 -2.42311 -54.79741 204 ft 21 kts 261°
2026-04-25 18:27 -2.42335 -54.79886 213 ft 21 kts 261°
2026-04-25 18:27 -2.42358 -54.80026 211 ft 20 kts 261°
2026-04-25 18:28 -2.42379 -54.80160 205 ft 18 kts 261°
2026-04-25 18:28 -2.42405 -54.80260 213 ft 14 kts 238°
2026-04-25 18:28 -2.42438 -54.80319 208 ft 10 kts 307°
2026-04-25 18:29 -2.42351 -54.79971 212 ft 79 kts 81°
2026-04-25 18:29 -2.42227 -54.79212 205 ft 140 kts 81°
2026-04-25 18:30 -2.41589 -54.75702 1714 ft 188 kts 79°
2026-04-25 18:30 -2.41372 -54.74310 1935 ft 216 kts 80°
2026-04-25 18:30 -2.41123 -54.72755 2213 ft 234 kts 77°
2026-04-25 18:30 -2.40766 -54.71084 2472 ft 256 kts 78°
2026-04-25 18:31 -2.40465 -54.69294 3087 ft 262 kts 82°
2026-04-25 18:31 -2.40220 -54.67518 3950 ft 261 kts 82°
2026-04-25 18:31 -2.39970 -54.65723 4796 ft 261 kts 82°
2026-04-25 18:31 -2.39705 -54.63914 5536 ft 265 kts 82°
2026-04-25 18:32 -2.39425 -54.62070 6215 ft 270 kts 82°
2026-04-25 18:32 -2.39133 -54.60205 6927 ft 271 kts 81°
2026-04-25 18:32 -2.38834 -54.58331 7624 ft 275 kts 81°
2026-04-25 18:32 -2.38534 -54.56426 8262 ft 280 kts 81°
2026-04-25 18:33 -2.38261 -54.54483 8927 ft 283 kts 81°
2026-04-25 18:33 -2.37999 -54.52522 9669 ft 286 kts 81°
2026-04-25 18:33 -2.37734 -54.50528 10196 ft 295 kts 81°
2026-04-25 18:33 -2.37453 -54.48425 10372 ft 316 kts 81°
2026-04-25 18:34 -2.37153 -54.46195 10762 ft 327 kts 81°
2026-04-25 18:34 -2.36853 -54.43960 11365 ft 330 kts 81°
2026-04-25 18:34 -2.36546 -54.41676 12042 ft 332 kts 81°
2026-04-25 18:34 -2.36237 -54.39381 12748 ft 334 kts 81°
2026-04-25 18:35 -2.35924 -54.37072 13429 ft 337 kts 81°
2026-04-25 18:35 -2.35609 -54.34742 14040 ft 340 kts 81°
2026-04-25 18:35 -2.35290 -54.32387 14608 ft 344 kts 81°
2026-04-25 18:35 -2.34967 -54.30005 15184 ft 348 kts 81°
2026-04-25 18:36 -2.34640 -54.27597 15776 ft 351 kts 81°
2026-04-25 18:36 -2.34310 -54.25166 16358 ft 355 kts 80°
2026-04-25 18:36 -2.33976 -54.22709 16893 ft 359 kts 80°
2026-04-25 18:36 -2.33638 -54.20215 17444 ft 363 kts 80°
2026-04-25 18:37 -2.33297 -54.17703 18026 ft 366 kts 80°
2026-04-25 18:37 -2.32952 -54.15162 18533 ft 370 kts 80°
2026-04-25 18:37 -2.32605 -54.12606 19037 ft 372 kts 81°
2026-04-25 18:37 -2.32256 -54.10033 19539 ft 374 kts 81°
2026-04-25 18:38 -2.31909 -54.07479 20043 ft 376 kts 81°
2026-04-25 18:38 -2.31556 -54.04878 20526 ft 379 kts 81°
2026-04-25 18:38 -2.31200 -54.02260 21009 ft 382 kts 81°
2026-04-25 18:38 -2.30854 -53.99711 21473 ft 384 kts 81°
2026-04-25 18:39 -2.30493 -53.97053 21934 ft 387 kts 81°
2026-04-25 18:39 -2.30129 -53.94376 22399 ft 390 kts 82°
2026-04-25 18:39 -2.29763 -53.91680 22859 ft 392 kts 82°
2026-04-25 18:39 -2.29395 -53.88972 23312 ft 395 kts 82°
2026-04-25 18:40 -2.29023 -53.86240 23701 ft 397 kts 82°
2026-04-25 18:40 -2.28650 -53.83498 24092 ft 399 kts 82°
2026-04-25 18:40 -2.28276 -53.80745 24489 ft 400 kts 82°
2026-04-25 18:40 -2.27901 -53.77988 24883 ft 401 kts 82°
2026-04-25 18:41 -2.27524 -53.75218 25259 ft 403 kts 82°
2026-04-25 18:41 -2.27145 -53.72433 25646 ft 404 kts 82°
2026-04-25 18:41 -2.26765 -53.69639 26034 ft 405 kts 82°
2026-04-25 18:41 -2.26385 -53.66847 26400 ft 407 kts 82°
2026-04-25 18:42 -2.26002 -53.64035 26751 ft 409 kts 83°
2026-04-25 18:42 -2.25873 -53.63084 26863 ft 410 kts 83°
2026-04-25 18:42 -2.25232 -53.58378 27456 ft 412 kts 83°
2026-04-25 18:42 -2.24844 -53.55529 27802 ft 414 kts 83°
2026-04-25 18:43 -2.24454 -53.52669 28134 ft 416 kts 83°
2026-04-25 18:43 -2.24064 -53.49801 28459 ft 417 kts 83°
2026-04-25 18:43 -2.23674 -53.46941 28776 ft 419 kts 83°
2026-04-25 18:43 -2.23279 -53.44047 29104 ft 421 kts 83°
2026-04-25 18:44 -2.22883 -53.41141 29402 ft 422 kts 83°
2026-04-25 18:44 -2.22486 -53.38226 29706 ft 424 kts 83°
2026-04-25 18:44 -2.22087 -53.35298 29992 ft 426 kts 83°
2026-04-25 18:44 -2.21686 -53.32360 30235 ft 427 kts 83°
2026-04-25 18:45 -2.21284 -53.29412 30483 ft 428 kts 83°
2026-04-25 18:45 -2.20880 -53.26451 30736 ft 429 kts 83°
2026-04-25 18:45 -2.20475 -53.23482 30966 ft 431 kts 83°
2026-04-25 18:45 -2.20073 -53.20540 31140 ft 434 kts 83°
2026-04-25 18:46 -2.19664 -53.17540 31356 ft 436 kts 83°
2026-04-25 18:46 -2.19254 -53.14533 31590 ft 437 kts 83°
2026-04-25 18:46 -2.18841 -53.11516 31826 ft 438 kts 83°
2026-04-25 18:46 -2.18429 -53.08492 32036 ft 440 kts 83°
2026-04-25 18:47 -2.18014 -53.05458 32238 ft 441 kts 83°
2026-04-25 18:47 -2.17598 -53.02412 32447 ft 443 kts 83°
2026-04-25 18:47 -2.17197 -52.99473 32705 ft 442 kts 82°
2026-04-25 18:47 -2.16781 -52.96427 33020 ft 441 kts 83°
2026-04-25 18:48 -2.16366 -52.93394 33335 ft 440 kts 83°
2026-04-25 18:48 -2.15952 -52.90362 33621 ft 440 kts 83°
2026-04-25 18:48 -2.15538 -52.87334 33903 ft 439 kts 83°
2026-04-25 18:48 -2.15125 -52.84316 34172 ft 438 kts 83°
2026-04-25 18:49 -2.14713 -52.81301 34477 ft 436 kts 83°
2026-04-25 18:49 -2.14303 -52.78304 34783 ft 434 kts 83°
2026-04-25 18:49 -2.13896 -52.75324 35039 ft 433 kts 83°
2026-04-25 18:49 -2.13487 -52.72336 35211 ft 435 kts 83°
2026-04-25 18:50 -2.13083 -52.69380 35445 ft 434 kts 83°
2026-04-25 18:50 -2.12674 -52.66397 35748 ft 431 kts 83°
2026-04-25 18:50 -2.12268 -52.63432 36033 ft 430 kts 83°
2026-04-25 18:50 -2.11862 -52.60459 36155 ft 432 kts 83°
2026-04-25 18:51 -2.11454 -52.57477 36334 ft 433 kts 83°
2026-04-25 18:51 -2.11315 -52.56466 36427 ft 432 kts 83°
2026-04-25 18:51 -2.10640 -52.51536 36898 ft 429 kts 84°
2026-04-25 18:51 -2.10235 -52.48578 36869 ft 430 kts 84°
2026-04-25 18:52 -2.09427 -52.42680 36871 ft 426 kts 84°
2026-04-25 18:52 -2.08630 -52.36865 36879 ft 423 kts 84°
2026-04-25 18:53 -2.07830 -52.31027 36876 ft 422 kts 84°
2026-04-25 18:53 -2.07034 -52.25217 36887 ft 421 kts 84°
2026-04-25 18:54 -2.05846 -52.16552 36886 ft 421 kts 84°
2026-04-25 18:55 -2.05048 -52.10736 36888 ft 422 kts 84°
2026-04-25 18:55 -2.04248 -52.04905 36886 ft 423 kts 84°
2026-04-25 18:56 -2.03461 -51.99172 36884 ft 425 kts 84°
2026-04-25 18:56 -2.02661 -51.93345 36883 ft 426 kts 84°
2026-04-25 18:57 -2.01854 -51.87464 36886 ft 427 kts 84°
2026-04-25 18:57 -2.01043 -51.81562 36886 ft 429 kts 84°
2026-04-25 18:58 -2.00231 -51.75654 36884 ft 429 kts 84°
2026-04-25 18:58 -1.99149 -51.67781 36881 ft 430 kts 84°
2026-04-25 18:59 -1.97520 -51.55941 36879 ft 429 kts 84°
2026-04-25 19:00 -1.96307 -51.47119 36885 ft 428 kts 84°
2026-04-25 19:01 -1.95091 -51.38286 36884 ft 427 kts 84°
2026-04-25 19:01 -1.94281 -51.32407 36882 ft 427 kts 84°
2026-04-25 19:02 -1.93069 -51.23600 36884 ft 426 kts 84°
2026-04-25 19:03 -1.91992 -51.15788 36884 ft 426 kts 84°
2026-04-25 19:03 -1.91053 -51.08974 36887 ft 426 kts 84°
2026-04-25 19:04 -1.89839 -51.00168 36886 ft 426 kts 84°
2026-04-25 19:05 -1.88234 -50.88528 36888 ft 427 kts 84°
2026-04-25 19:06 -1.87421 -50.82639 36888 ft 427 kts 83°
2026-04-25 19:06 -1.86206 -50.73836 36883 ft 428 kts 83°
2026-04-25 19:07 -1.84983 -50.64977 36620 ft 433 kts 83°
2026-04-25 19:08 -1.84158 -50.59001 35597 ft 433 kts 83°
2026-04-25 19:08 -1.83745 -50.56013 35013 ft 434 kts 83°
2026-04-25 19:09 -1.82498 -50.46985 33024 ft 440 kts 83°
2026-04-25 19:09 -1.82220 -50.44973 32587 ft 441 kts 83°
2026-04-25 19:09 -1.81244 -50.37915 31417 ft 435 kts 83°
2026-04-25 19:10 -1.80830 -50.34926 30953 ft 432 kts 83°
2026-04-25 19:10 -1.80419 -50.31958 30474 ft 430 kts 82°
2026-04-25 19:10 -1.80012 -50.29008 30017 ft 427 kts 82°
2026-04-25 19:10 -1.79604 -50.26063 29470 ft 425 kts 82°
2026-04-25 19:11 -1.79206 -50.23187 28969 ft 421 kts 82°
2026-04-25 19:11 -1.78806 -50.20294 28486 ft 418 kts 82°
2026-04-25 19:11 -1.78411 -50.17433 28018 ft 414 kts 82°
2026-04-25 19:11 -1.78018 -50.14593 27552 ft 411 kts 82°
2026-04-25 19:12 -1.77627 -50.11772 27095 ft 407 kts 82°
2026-04-25 19:12 -1.77241 -50.08983 26650 ft 405 kts 82°
2026-04-25 19:12 -1.76856 -50.06201 26191 ft 402 kts 82°
2026-04-25 19:12 -1.76474 -50.03439 25738 ft 400 kts 82°
2026-04-25 19:13 -1.76093 -50.00692 25280 ft 398 kts 82°
2026-04-25 19:13 -1.75729 -49.98058 24837 ft 397 kts 82°
2026-04-25 19:13 -1.75352 -49.95334 24385 ft 395 kts 82°
2026-04-25 19:13 -1.74974 -49.92608 23923 ft 394 kts 81°
2026-04-25 19:14 -1.74598 -49.89892 23464 ft 394 kts 81°
2026-04-25 19:14 -1.74349 -49.88098 23108 ft 393 kts 81°
2026-04-25 19:14 -1.73849 -49.84488 22481 ft 390 kts 81°
2026-04-25 19:14 -1.73483 -49.81843 22031 ft 387 kts 81°
2026-04-25 19:15 -1.73114 -49.79186 21585 ft 385 kts 81°
2026-04-25 19:15 -1.72748 -49.76543 21148 ft 382 kts 81°
2026-04-25 19:15 -1.72384 -49.73917 20713 ft 380 kts 81°
2026-04-25 19:15 -1.72023 -49.71311 20288 ft 378 kts 81°
2026-04-25 19:16 -1.71663 -49.68718 19866 ft 375 kts 81°
2026-04-25 19:16 -1.71305 -49.66130 19430 ft 374 kts 81°
2026-04-25 19:16 -1.70948 -49.63560 19002 ft 372 kts 82°
2026-04-25 19:16 -1.70593 -49.61001 18567 ft 371 kts 82°
2026-04-25 19:17 -1.70243 -49.58477 18146 ft 370 kts 82°
2026-04-25 19:17 -1.69887 -49.55907 17671 ft 368 kts 82°
2026-04-25 19:17 -1.69540 -49.53411 17231 ft 365 kts 82°
2026-04-25 19:17 -1.69192 -49.50902 16808 ft 363 kts 81°
2026-04-25 19:18 -1.68847 -49.48413 16399 ft 360 kts 81°
2026-04-25 19:18 -1.68504 -49.45942 15991 ft 358 kts 81°
2026-04-25 19:18 -1.68163 -49.43480 15585 ft 355 kts 82°
2026-04-25 19:18 -1.67824 -49.41042 15182 ft 353 kts 82°
2026-04-25 19:19 -1.67487 -49.38610 14784 ft 352 kts 82°
2026-04-25 19:19 -1.67152 -49.36196 14377 ft 350 kts 82°
2026-04-25 19:19 -1.66817 -49.33788 13969 ft 349 kts 82°
2026-04-25 19:19 -1.66596 -49.32193 13695 ft 349 kts 82°
2026-04-25 19:20 -1.66155 -49.29020 13123 ft 347 kts 82°
2026-04-25 19:20 -1.65825 -49.26640 12713 ft 345 kts 82°
2026-04-25 19:20 -1.65495 -49.24268 12312 ft 342 kts 82°
2026-04-25 19:20 -1.65169 -49.21915 11918 ft 340 kts 82°
2026-04-25 19:21 -1.64844 -49.19581 11527 ft 338 kts 82°
2026-04-25 19:21 -1.64201 -49.14948 10756 ft 334 kts 82°
2026-04-25 19:21 -1.63883 -49.12660 10426 ft 330 kts 82°
2026-04-25 19:22 -1.63572 -49.10425 10284 ft 320 kts 82°
2026-04-25 19:22 -1.63273 -49.08269 10145 ft 311 kts 82°
2026-04-25 19:22 -1.62692 -49.04092 9830 ft 296 kts 82°
2026-04-25 19:23 -1.62409 -49.02055 9504 ft 293 kts 82°
2026-04-25 19:23 -1.61866 -48.98146 8916 ft 287 kts 82°
2026-04-25 19:23 -1.61591 -48.96170 8620 ft 287 kts 82°
2026-04-25 19:24 -1.61317 -48.94199 8322 ft 286 kts 82°
2026-04-25 19:24 -1.61043 -48.92229 8021 ft 285 kts 82°
2026-04-25 19:24 -1.60503 -48.88345 7436 ft 283 kts 82°
2026-04-25 19:25 -1.59964 -48.84464 6852 ft 281 kts 82°
2026-04-25 19:25 -1.59694 -48.82523 6557 ft 281 kts 82°
2026-04-25 19:25 -1.59426 -48.80594 6267 ft 280 kts 82°
2026-04-25 19:26 -1.59159 -48.78674 5955 ft 278 kts 82°
2026-04-25 19:26 -1.58895 -48.76778 5647 ft 273 kts 82°
2026-04-25 19:26 -1.58635 -48.74905 5367 ft 271 kts 82°
2026-04-25 19:26 -1.58376 -48.73049 5148 ft 267 kts 82°
2026-04-25 19:27 -1.58121 -48.71211 4881 ft 266 kts 82°
2026-04-25 19:27 -1.57952 -48.69999 4717 ft 265 kts 82°
2026-04-25 19:27 -1.57470 -48.67619 4480 ft 258 kts 64°
2026-04-25 19:27 -1.56389 -48.66203 4229 ft 256 kts 45°
2026-04-25 19:28 -1.55121 -48.64950 3967 ft 256 kts 45°
2026-04-25 19:28 -1.53865 -48.63713 3694 ft 251 kts 45°
2026-04-25 19:28 -1.52635 -48.62494 3427 ft 247 kts 45°
2026-04-25 19:28 -1.51440 -48.61323 3214 ft 238 kts 45°
2026-04-25 19:29 -1.50310 -48.60194 3088 ft 222 kts 45°
2026-04-25 19:29 -1.49253 -48.59122 2841 ft 212 kts 45°
2026-04-25 19:29 -1.48240 -48.58091 2592 ft 203 kts 45°
2026-04-25 19:29 -1.47268 -48.57103 2337 ft 195 kts 45°
2026-04-25 19:30 -1.46332 -48.56153 2082 ft 188 kts 45°
2026-04-25 19:30 -1.45430 -48.55236 1846 ft 182 kts 45°
2026-04-25 19:30 -1.44564 -48.54357 1617 ft 173 kts 45°
2026-04-25 19:30 -1.43762 -48.53541 1419 ft 157 kts 45°
2026-04-25 19:31 -1.43071 -48.52840 1229 ft 149 kts 46°
2026-04-25 19:31 -1.42302 -48.52058 1019 ft 148 kts 46°
2026-04-25 19:31 -1.41587 -48.51332 825 ft 149 kts 46°
2026-04-25 19:31 -1.40858 -48.50591 647 ft 149 kts 45°
2026-04-25 19:32 -1.40132 -48.49855 465 ft 146 kts 46°
2026-04-25 19:32 -1.39424 -48.49134 276 ft 144 kts 46°
2026-04-25 19:32 -1.38728 -48.48429 72 ft 141 kts 46°
2026-04-25 19:32 -1.38497 -48.48196 49 ft 135 kts 46°
2026-04-25 19:33 -1.37759 -48.47445 40 ft 39 kts 45°
2026-04-25 19:33 -1.37579 -48.47263 41 ft 35 kts 45°
2026-04-25 19:33 -1.37420 -48.47104 42 ft 31 kts 45°
2026-04-25 19:33 -1.37301 -48.46983 44 ft 20 kts 45°
2026-04-25 19:34 -1.37213 -48.46941 43 ft 8 kts 15°
2026-04-25 19:34 -1.37210 -48.46900 43 ft 8 kts 152°
2026-04-25 19:34 -1.37251 -48.46927 42 ft 8 kts 230°
2026-04-25 19:34 -1.37290 -48.46972 44 ft 10 kts 226°
2026-04-25 19:35 -1.37350 -48.47030 43 ft 14 kts 224°
2026-04-25 19:35 -1.37429 -48.47107 42 ft 18 kts 224°
2026-04-25 19:35 -1.37520 -48.47197 42 ft 18 kts 227°
2026-04-25 19:35 -1.37605 -48.47288 41 ft 18 kts 227°
2026-04-25 19:36 -1.37688 -48.47375 40 ft 17 kts 222°
2026-04-25 19:36 -1.37770 -48.47456 40 ft 16 kts 225°
2026-04-25 19:36 -1.37849 -48.47535 39 ft 16 kts 225°
2026-04-25 19:36 -1.37922 -48.47609 38 ft 11 kts 225°
2026-04-25 19:37 -1.37940 -48.47627 38 ft 2 kts 225°
2026-04-25 19:37 -1.37950 -48.47637 38 ft 2 kts 226°
2026-04-25 19:37 -1.37954 -48.47641 39 ft 0 kts 226°
2026-04-25 19:39 -1.37955 -48.47642 39 ft 1 kts 221°
2026-04-25 19:39 -1.37961 -48.47645 39 ft 1 kts 204°
2026-04-25 19:39 -1.37970 -48.47646 39 ft 1 kts 181°
2026-04-25 19:40 -1.37981 -48.47643 39 ft 2 kts 158°
2026-04-25 19:40 -1.38001 -48.47637 39 ft 4 kts 166°
2026-04-25 19:40 -1.38032 -48.47632 39 ft 5 kts 171°
2026-04-25 19:40 -1.38072 -48.47631 40 ft 6 kts 185°
2026-04-25 19:41 -1.38118 -48.47635 39 ft 7 kts 185°
2026-04-25 19:41 -1.38173 -48.47640 42 ft 9 kts 186°
2026-04-25 19:41 -1.38240 -48.47645 42 ft 10 kts 184°
2026-04-25 19:41 -1.38264 -48.47648 42 ft 11 kts 184°
2026-04-25 19:42 -1.38375 -48.47658 42 ft 13 kts 185°
2026-04-25 19:42 -1.38466 -48.47666 42 ft 13 kts 186°
2026-04-25 19:42 -1.38555 -48.47674 43 ft 13 kts 184°
2026-04-25 19:42 -1.38636 -48.47680 44 ft 9 kts 189°
2026-04-25 19:43 -1.38666 -48.47730 43 ft 9 kts 268°
2026-04-25 19:43 -1.38708 -48.47795 42 ft 10 kts 186°
2026-04-25 19:43 -1.38752 -48.47799 42 ft 10 kts 185°
2026-04-25 19:43 -1.38828 -48.47806 42 ft 12 kts 185°
2026-04-25 19:44 -1.38908 -48.47814 42 ft 11 kts 185°
2026-04-25 19:44 -1.38966 -48.47818 42 ft 8 kts 185°
2026-04-25 19:44 -1.38997 -48.47852 42 ft 7 kts 266°
2026-04-25 19:44 -1.38995 -48.47887 42 ft 2 kts 275°
2026-04-25 19:45 -1.38995 -48.47890 42 ft 0 kts 275°